www.pogodaiklimat.ru

Погода и климат >> Архив погоды >> Индия >> Западная Бенгалия >> Дига


ПОГОДА в Диге

  • Прогноз погоды в Диге
  • Монитор погоды в Диге

АРХИВ ПОГОДЫ в Диге

Время (UTC), дата Ветер
(напр.,м/с)
 
Видим.   Явления Облачность Т
(С)
Тd
(С)
f
(%)
Тe
(С)
Тes
(С)
Комфортность P
(гПа)
Po
(гПа)
Тmin
(С)
Tmax
(С)
R
(мм)
R24
(мм)
S
(см)
03 10.09 ЮЗ 2 4000 м 9/5 300 м
[St Ac trans]
+29.4 +27.2 88 +47 +49 опасность
перегрева
1002.4 1001.7 +28.0
06 10.09 З 2 4000 м 9/4 600 м
[Sc diur, vesp Ac As]
+29.8 +27.0 85 +47 +52 опасность
перегрева
1001.6 1000.9
09 10.09 ЮЗ 1 4000 м 9/6 600 м
[Sc diur, vesp Ac As]
+32.6 +28.0 77 +53 +56 опасность
перегрева
999.6 998.9
12 10.09 Ю 2 4000 м 6/4 600 м
[Sc diur, vesp Ac trans]
+30.0 +26.1 80 +45 +45 опасность
перегрева
999.9 999.2 +32.6
15 10.09 З 2 4000 м 6/3 600 м
[Sc diur, vesp Ac trans]
+28.8 +26.3 86 +44 +44 опасность
перегрева
1002.5 1001.8
18 10.09 З 2 4000 м 6/3 600 м
[Sc diur, vesp Ac trans]
+28.8 +26.6 88 +45 +45 опасность
перегрева
1002.3 1001.6
21 10.09 З 2 4000 м 8/4 600 м
[Sc diur, vesp Ac As]
+28.8 +26.6 88 +45 +45 опасность
перегрева
1000.7 1000.0
00 11.09 З 2 4000 м 9/4 600 м
[Sc diur, vesp Ac As]
+28.6 +26.6 89 +44 +44 опасность
перегрева
1000.7 1000.0
03 11.09 штиль 0 4000 м слаб. дождь 9/6 600 м
[Sc Ac As]
+28.4 +27.3 94 +45 +48 опасность
перегрева
1003.0 1002.3 +27.5 0.5
06 11.09 ЮЗ 1 4000 м слаб. ливневой дождь, в посл. час гроза 10/5 600 м
[Sc Ac As]
+26.8 +26.2 97 +41 +44 опасность
перегрева
1003.3 1002.6 26
09 11.09 З 2 4000 м слаб. дождь {гроза} 9/6 600 м
[Sc Ac trans]
+27.0 +26.7 98 +42 +44 опасность
перегрева
1001.4 1000.7 33
12 11.09 З 3 4000 м {гроза, дождь} 9/5 600 м
[Sc diur, vesp Ac As]
+27.4 +26.6 95 +42 +42 опасность
перегрева
1000.9 1000.2 +28.4 33
15 11.09 ЮЗ 1 4000 м слаб. дождь 10/5 600 м
[Sc diur, vesp Ac As]
+27.4 +26.8 97 +43 +43 опасность
перегрева
1003.5 1002.8 33
18 11.09 ЮЗ 1 4000 м слаб. дождь 10/5 600 м
[Sc diur, vesp Ac As]
+27.4 +27.1 98 +43 +43 опасность
перегрева
1003.9 1003.2 35
21 11.09 З 1 4000 м в посл. час дождь 10/5 600 м
[Sc diur, vesp Ac As]
+27.0 +26.4 97 +41 +41 опасность
перегрева
1001.8 1001.1 36
00 12.09 З 1 4000 м в посл. час дождь 10/5 600 м
[Sc diur, vesp Ac As]
+26.6 +25.7 95 +39 +39 очень
душно
1002.7 1002.0 37
03 12.09 ЮЗ 1 4000 м слаб. дождь {морось} 10/6 300 м
[St Ac As]
+27.2 +26.4 95 +41 +43 опасность
перегрева
1004.8 1004.1 +25.5 37
06 12.09 ЮЗ 2 4000 м дождь {морось} 10/6 300 м
[St Ac As]
+26.0 +25.7 98 +38 +41 очень
душно
1005.4 1004.7 17
09 12.09 ЮЗ 1 4000 м слаб. дождь 10/6 600 м
[St Ac As]
+27.0 +25.9 94 +40 +42 очень
душно
1002.7 1002.0 19
12 12.09 З 2 4000 м {дождь} 10/5 600 м
[St Ac As]
+28.0 +26.3 91 +43 +43 опасность
перегрева
1002.8 1002.1 +28.0 19
15 12.09 ЮЗ 2 4000 м 10/6 600 м
[St Ac As]
+27.6 +25.9 90 +41 +41 опасность
перегрева
1005.8 1005.1 19
18 12.09 ЮЗ 2 4000 м 10/5 600 м
[St Ac As]
+28.2 +26.2 89 +43 +43 опасность
перегрева
1006.1 1005.4 19
21 12.09 ЮЗ 2 4000 м {дождь} 10/6 600 м
[St Ac As]
+27.8 +26.4 92 +42 +42 опасность
перегрева
1005.0 1004.3 21
00 13.09 ЮЗ 2 4000 м дождь 10/8 600 м
[St Ac As]
+27.6 +26.8 95 +43 +43 опасность
перегрева
1005.5 1004.8 27
03 13.09 З 4 4000 м 8/5 600 м
[Sc diur, vesp Ac trans]
+28.2 +26.5 91 +44 +45 опасность
перегрева
1007.2 1006.5 +26.0 27
06 13.09 З 2 4000 м 6/4 600 м
[Sc diur, vesp Ac trans]
+30.8 +26.9 80 +48 +58 опасность
перегрева
1007.0 1006.3
09 13.09 Ю 1 4000 м 5/4 600 м
[Sc diur, vesp Ci fib]
+32.0 +27.6 78 +52 +59 опасность
перегрева
1005.1 1004.4
12 13.09 Ю 2 4000 м 6/4 600 м
[Sc diur, vesp Ac trans Ci sp]
+30.0 +27.2 85 +48 +48 опасность
перегрева
1004.5 1003.8 +32.4
15 13.09 ЮЗ 2 4000 м 8/4 600 м
[Sc diur, vesp Ac trans]
+29.0 +26.8 88 +45 +45 опасность
перегрева
1005.9 1005.2
18 13.09 ЮЗ 1 4000 м 6/4 600 м
[Sc diur, vesp Ci sp]
+28.6 +26.4 88 +44 +44 опасность
перегрева
1006.2 1005.5
21 13.09 З 1 4000 м 5/3 600 м
[Sc diur, vesp Ac trans]
+28.2 +25.9 87 +42 +42 опасность
перегрева
1005.3 1004.6
00 14.09 ЮЗ 2 4000 м 5/3 600 м
[Sc diur, vesp Ac trans]
+28.0 +25.7 87 +41 +41 опасность
перегрева
1005.9 1005.2
03 14.09 З 2 4000 м 4/0 2000 м
[Ac trans Ci fib]
+29.4 +26.3 83 +45 +53 опасность
перегрева
1007.2 1006.5 +26.8
06 14.09 ЮЗ 1 4000 м 8/4 600 м
[Sc Ac trans Ci fib]
+31.4 +26.4 75 +48 +57 опасность
перегрева
1007.0 1006.3
09 14.09 Ю 1 4000 м 5/4 600 м
[Sc diur, vesp Ac trans]
+33.6 +27.9 72 +54 +61 опасность
перегрева
1004.6 1003.9
12 14.09 ЮЗ 1 4000 м 8/5 600 м
[Sc diur, vesp Ac trans]
+31.2 +27.6 81 +50 +50 опасность
перегрева
1004.6 1003.9 +33.8
15 14.09 Ю 1 4000 м 4/3 600 м
[Sc diur, vesp Ac trans]
+29.6 +27.4 88 +48 +48 опасность
перегрева
1006.6 1005.9
18 14.09 ЮЗ 2 4000 м 5/4 300 м
[St Ac trans]
+29.0 +26.5 86 +44 +44 опасность
перегрева
1006.6 1005.9
21 14.09 ЮЗ 2 4000 м 8/6 300 м
[St Ac trans]
+28.6 +26.1 86 +43 +43 опасность
перегрева
1005.6 1004.9
00 15.09 ЮЗ 1 4000 м 6/3 600 м
[Sc diur, vesp Ac As]
+28.0 +26.3 91 +43 +43 опасность
перегрева
1005.7 1005.0
03 15.09 ЮЗ 1 4000 м 4/3 600 м
[Sc diur, vesp Ac As]
+30.0 +26.9 84 +47 +54 опасность
перегрева
1006.7 1006.0 +27.0
06 15.09 Ю 1 4000 м 5/3 600 м
[Sc diur, vesp Ac As]
+33.0 +26.9 70 +51 +63 опасность
перегрева
1006.2 1005.5
09 15.09 Ю 2 4000 м 5/3 600 м
[Sc diur, vesp Ac trans Ci fib]
+34.4 +27.3 67 +53 +60 опасность
перегрева
1003.6 1002.9
12 15.09 Ю 1 4000 м 8/4 600 м
[Sc diur, vesp Ac trans Ci sp]
+31.8 +27.1 76 +50 +50 опасность
перегрева
1003.4 1002.7 +34.5
15 15.09 Ю 1 4000 м 5/4 600 м
[St Ac trans]
+30.0 +26.9 84 +47 +47 опасность
перегрева
1005.3 1004.6
18 15.09 Ю 2 4000 м 6/4 600 м
[Sc diur, vesp Ac trans]
+29.6 +27.1 86 +47 +47 опасность
перегрева
1005.5 1004.8
21 15.09 Ю 2 4000 м 9/5 600 м
[Sc Ac As]
+29.0 +26.5 86 +44 +44 опасность
перегрева
1004.3 1003.6
00 16.09 Ю 1 4000 м 8/4 600 м
[Sc diur, vesp Ac trans]
+28.6 +26.4 88 +44 +44 опасность
перегрева
1004.4 1003.7
03 16.09 Ю 2 4000 м 5/3 600 м
[Sc diur, vesp Ac trans]
+30.2 +26.9 83 +47 +53 опасность
перегрева
1005.7 1005.0 +27.4
06 16.09 Ю 2 4000 м 6/5 600 м
[Sc diur, vesp Ac trans]
+34.0 +27.1 67 +52 +61 опасность
перегрева
1005.3 1004.6
09 16.09 Ю 2 4000 м 6/5 600 м
[Sc diur, vesp Ac trans]
+34.4 +27.0 65 +52 +57 опасность
перегрева
1002.9 1002.2
12 16.09 Ю 1 4000 м 6/4 600 м
[Sc diur, vesp Ac trans]
+31.6 +26.6 75 +49 +49 опасность
перегрева
1002.4 1001.7 +34.4
15 16.09 ЮВ 2 4000 м 4/3 600 м
[Sc diur, vesp Ac trans]
+29.8 +26.5 83 +46 +46 опасность
перегрева
1004.4 1003.7
18 16.09 Ю 1 4000 м 4/3 600 м
[Sc diur, vesp Ac trans]
+29.4 +26.0 82 +44 +44 опасность
перегрева
1005.2 1004.5
21 16.09 З 1 4000 м 6/5 600 м
[Sc diur, vesp Ac trans]
+29.0 +25.3 80 +42 +42 опасность
перегрева
1004.4 1003.7
00 17.09 ЮВ 1 4000 м 8/5 600 м
[Sc diur, vesp Ac trans]
+28.6 +25.5 83 +42 +42 опасность
перегрева
1004.8 1004.1

 

Местоположение метеостанции Дига (Западная Бенгалия, Индия): широта 21.62 долгота 87.50 высота над уровнем моря 6 м.

В архиве по умолчанию представлена погода в Диге за последнюю неделю. Архивные данные за месяц целиком и за предыдущие месяцы, начиная с января 2011 года, Вы можете получить, выбрав интересующий диапазон дат из раскрывающегося списка и нажав кнопку "Ввод!".


*Определитесь, кто Вы:
робот инопланетянин человек

Внимание! Время в таблицах - всемирное. Для получения местного времени необходимо прибавить поправку, которая равна 5.5 ч.

Смотрите также архив погоды в соседних городах и на ближайших метеорологических станциях:

Погода в Контае (Западная Бенгалия, Индия) (31 км)
Погода в Баласоре (Орисса, Индия) (60 км)
Погода в Халдии (Западная Бенгалия, Индия) (73 км)
Погода в Барипаде (Орисса, Индия) (83 км)
Погода в Миднапуре (Западная Бенгалия, Индия) (91 км)
Погода в Даймонд Харбор (Западная Бенгалия, Индия) (95 км)
Погода в Улуберии (Западная Бенгалия, Индия) (108 км)
Погода в Чандбали (Орисса, Индия) (123 км)
Погода в Колкате (Западная Бенгалия, Индия) (133 км)
Погода в Каннинге (Западная Бенгалия, Индия) (140 км)

Пояснения к столбцам:

Ветер - указаны скорость ветра в м/с - средняя за 10 мин, порывы в срок и между сроками (в фигурных скобках) и направление, откуда дует ветер: С - северный, СВ - северо-восточный, В - восточный, ЮВ - юго-восточный, Ю - южный, ЮЗ - юго-западный, З - западный, СЗ - северо-западный.
Видимость - горизонтальная дальность видимости в метрах или километрах. При видимости от 1 до 10 км при отсутствии осадков обычно наблюдается дымка, при ухудшении видимости до 1 км и менее - туман. В сухую погоду видимость может ухудшаться дымом, пылью или мглою.
Явления - указаны атмосферные явления, наблюдавшиеся в срок или в последний час перед сроком; фигурными скобками обозначены явления, наблюдавшиеся между сроками (за 1-3 часа до срока); квадратными скобками обозначены град или гололедные отложения с указанием их диаметра в мм.
Облачность - указаны через наклонную черту общая и нижняя облачность в баллах и высота нижней границы облаков в метрах; квадратными скобками обозначены формы облаков: Ci - перистые, Cs - перисто-слоистые, Cc - перисто-кучевые, Ac - высококучевые, As - высокослоистые, Sc - слоисто-кучевые, Ns - слоисто-дождевые, Cu - кучевые, Cb - кучево-дождевые. Подробнее классификацию облаков см. в Атласе облаков (PDF).
T - Температура воздуха - температура, измеренная на высоте 2 м над землей.
Td - Температура точки росы - температура, при понижении до которой содержащийся в воздухе водяной пар достигнет насыщения.
f - Относительная влажность воздуха - влажноcть воздуха, измеренная на высоте 2 м над землей.
Te - Эффективная температура - температура, которую ощущает одетый по сезону человек в тени. Характеристика душности погоды. При расчете учитывается влияние влажности воздуха и скорости ветра на теплоощущения человека.
Tes - Эффективная температура на солнце - температура, которую ощущает человек, с поправкой на солнечный нагрев. Характеристика знойности погоды. Зависит от высоты солнца над горизонтом, облачности и скорости ветра. Ночью, в пасмурную погоду, а также при ветре 12 м/с и более поправка равна нулю.
P - Атмосферное давление - приведенное к уровню моря атмосферное давление.
Po - Атмосферное давление - измеренное на уровне метеостанции атмосферное давление.
Tmin - Минимальная температура - минимум температуры воздуха на высоте 2 м над землей.
Tmax - Максимальная температура - максимум температуры воздуха на высоте 2 м над землей.
R - Количество осадков - Количество выпавших осадков за период времени, мм. При наведении курсора мыши на число - период времени, за который выпало указанное количество осадков.
R24 - Количество осадков - Количество выпавших осадков за 24 часа, мм.
S - Снежный покров - Высота снежного покрова, см. При наведении курсора мыши на число - состояние снежного покрова и степень покрытия местности в баллах.